星链-32747 (STARLINK-32747)

导读 | 豆包AI

STARLINK-32747是美国太空探索技术公司(SpaceX)星链(Starlink)星座中的卫星,于2025年1月13日发射入轨。星链项目旨在构建全球覆盖的低轨卫星互联网系统,为全球提供高速宽带接入服务。该卫星运行在近地轨道,是星链星座大规模组网的组成部分,助力实现全球无缝网络覆盖,推动卫星互联网技术的发展与应用普及。

基本信息
目录编号:
62600
目录名称:
STARLINK-32747
国际标识:
2025-008P
轨道中心:
EARTH
卫星名称:
星链-32747
卫星全名:
星链-32747 (STARLINK-32747)
卫星状态:
在轨 (已飞行471 天)
发射日期:
2025-01-13 UTC
国别 :
美国 (US)
星等 :
--
轨道信息
数据来源 国际轨道数据
星历时间: 2026-04-29T09:22:19+0800
21小时前
查看轨道信息
半长轴: 6861.151km
偏心率: 0.0001585
轨道倾角: 43.002°
近地点辐角 267.954°
升交点赤经 353.806°
平近点角 92.113°
近地点: 481.926km
远地点: 484.102km
周期: 94.266分钟
每日圈数: 15.27592
详细信息
固有亮度:
5
最大亮度:
2.5
卫星平台:
Starlink V1.0
覆盖范围:
全球
运营商:
太空探索技术公司
运营商所在国:
美国
制造商(研发单位):
太空探索技术公司
制造商所在国:
美国
使用方式:
暂无
卫星简介
Starlink 计划是 SpaceX 推出的全球卫星互联网项目,通过发射低轨道卫星,为全球尤其是偏远地区提供高速、低延迟的互联网服务。自 2019 年起,Starlink 已部署数千颗卫星,旨在缩小全球数字鸿沟,推动互联网普及。该项目还为军事、航空等行业提供通信支持,带来广泛经济效益。
2D轨道图
3D轨道图
轨道高度分析图
轨道倾角分析图
轨道综合分析图
查看轨道综合分析图